Weather reports worldwide

Advertisment
Cottbus, Germany (10496): temperature & dewpoint: 01.08.2020 03:00:00 - 07.08.2020 03:00:00 (CEST)Cottbus, Germany (10496): temperature 5cm & temperature -5cm: 01.08.2020 03:00:00 - 07.08.2020 03:00:00 (CEST)Cottbus, Germany (10496): temperature -20cm & temperature -100cm: 01.08.2020 03:00:00 - 07.08.2020 03:00:00 (CEST)Cottbus, Germany (10496): wind speed & gusts: 01.08.2020 03:00:00 - 07.08.2020 03:00:00 (CEST)Cottbus, Germany (10496): wind direction: 01.08.2020 03:00:00 - 07.08.2020 03:00:00 (CEST)Cottbus, Germany (10496): reduced air pressure: 01.08.2020 03:00:00 - 07.08.2020 03:00:00 (CEST)Cottbus, Germany (10496): visibility: 01.08.2020 03:00:00 - 07.08.2020 03:00:00 (CEST)Cottbus, Germany (10496): sunshine duration: 01.08.2020 03:00:00 - 07.08.2020 03:00:00 (CEST)Cottbus, Germany (10496): precipitation: 01.08.2020 03:00:00 - 07.08.2020 03:00:00 (CEST)
Date & Time tt [°C] td [°C] tt 5cm [°C] tt -5cm [°C] tt -20cm [°C] tt -100cm [°C] ff [km/h] ff [kn] fx [km/h] fx [kn] dd ppp [hPa] vv [km] sd [min] rr [mm]
07.08.2020 03:00:00 17,1 14,6 15,3 20,9 25,4 21,0 3 2 5 3 NE 1022,1 42 0 0,0
07.08.2020 02:00:00 17,3 14,4 15,7 21,5 26,0 20,9 3 2 4 2 NNE 1022,4 41 0 0,0
07.08.2020 01:00:00 18,3 14,5 16,3 22,3 26,5 20,9 4 2 5 3 NE 1022,2 45 0 0,0
07.08.2020 00:00:00 19,6 14,5 17,3 23,3 27,1 20,9 5 3 8 4 ENE 1022,3 49 0 0,0
06.08.2020 23:00:00 21,1 14,8 18,5 24,4 27,7 20,9 5 3 8 5 ENE 1022,1 46 0 0,0
06.08.2020 22:00:00 23,8 14,3 20,8 25,9 28,4 20,9 5 3 14 8 E 1021,8 53 0 0,0
06.08.2020 21:00:00 25,6 14,1 23,6 27,7 28,9 20,9 6 3 19 10 E 1021,3 58 3 0,0
06.08.2020 20:00:00 27,3 13,4 26,7 30,2 29,2 20,9 13 7 26 14 E 1020,8 57 60 0,0
06.08.2020 19:00:00 28,5 12,6 29,8 34,3 29,3 20,9 12 6 24 13 ENE 1020,3 59 59 0,0
06.08.2020 18:00:00 29,2 11,7 31,6 37,2 29,2 20,9 14 8 28 15 ENE 1020,3 75 60 0,0
06.08.2020 17:00:00 29,2 10,8 32,2 39,7 28,7 20,9 15 8 34 18 ENE 1020,5 59 60 0,0
06.08.2020 16:00:00 29,1 11,3 34,0 40,9 27,9 20,9 14 8 29 16 ENE 1020,7 67 60 0,0
06.08.2020 15:00:00 28,8 10,7 33,9 41,6 26,9 20,9 12 7 27 15 ENE 1021,2 52 60 0,0
06.08.2020 14:00:00 27,6 9,3 33,5 40,8 25,7 20,9 11 6 25 14 ENE 1021,4 59 60 0,0
06.08.2020 13:00:00 27,1 9,2 33,0 38,5 24,5 20,9 9 5 22 12 ENE 1021,9 59 60 0,0
06.08.2020 12:00:00 26,4 8,8 31,3 35,4 23,2 20,9 11 6 24 13 E 1021,9 59 60 0,0
06.08.2020 11:00:00 25,3 9,3 29,6 31,8 22,1 20,9 13 7 20 11 ENE 1022,3 49 60 0,0
06.08.2020 10:00:00 22,9 10,1 26,7 27,8 21,3 20,9 8 4 16 8 E 1022,4 56 60 0,0
06.08.2020 09:00:00 21,0 10,8 24,3 23,6 20,9 20,8 8 4 15 8 ENE 1022,5 51 60 0,0
06.08.2020 08:00:00 17,7 10,6 20,0 19,6 20,9 20,8 8 4 15 8 ENE 1022,1 58 60 0,0
06.08.2020 07:00:00 15,7 10,7 15,9 16,4 21,2 20,8 5 3 9 5 ENE 1021,6 58 38 0,0
06.08.2020 06:00:00 12,0 10,6 9,9 15,9 21,7 20,8 5 3 8 4 E 1021,5 52 0 0,0
06.08.2020 05:00:00 12,2 10,3 10,3 16,6 22,2 20,8 4 2 6 4 E 1021,4 57 0 0,0
06.08.2020 04:00:00 13,4 10,7 10,8 17,3 22,8 20,8 5 3 6 4 E 1021,2 51 0 0,0
06.08.2020 03:00:00 14,5 10,8 11,9 18,1 23,4 20,8 4 2 9 5 ESE 1020,7 17 0 0,0
06.08.2020 02:00:00 16,2 10,7 12,9 19,0 24,0 20,8 6 3 11 6 ESE 1020,5 54 0 0,0
06.08.2020 01:00:00 17,1 10,6 14,0 19,9 24,6 20,8 7 4 11 6 ESE 1020,4 64 0 0,0
06.08.2020 00:00:00 18,7 10,4 16,9 20,9 25,3 20,8 8 5 14 8 SE 1020,2 73 0 0,0
05.08.2020 23:00:00 18,7 10,2 15,2 21,9 26,0 20,8 6 3 11 6 ESE 1019,8 61 0 0,0
05.08.2020 22:00:00 20,6 9,6 17,1 23,4 26,8 20,8 6 3 11 6 ESE 1019,5 70 0 0,0
05.08.2020 21:00:00 21,8 9,3 17,6 25,5 27,5 20,8 4 2 11 6 E 1018,9 56 9 0,0
05.08.2020 20:00:00 24,8 6,3 21,4 28,5 27,9 20,8 5 3 10 5 N 1018,4 75 59 0,0
05.08.2020 19:00:00 26,0 5,8 28,0 32,7 28,0 20,9 4 2 16 9 SSW 1018,1 75 60 0,0
05.08.2020 18:00:00 27,0 6,5 29,7 35,7 27,8 20,9 7 4 18 10 WSW 1018,2 75 60 0,0
05.08.2020 17:00:00 26,4 5,0 30,7 37,6 27,3 20,9 7 4 17 9 SSW 1018,3 70 60 0,0
05.08.2020 16:00:00 25,9 5,7 29,2 37,3 26,4 20,9 8 5 18 10 SW 1018,4 75 59 0,0
05.08.2020 15:00:00 26,0 6,7 31,4 38,7 25,2 21,0 6 3 20 11 ESE 1018,8 55 59 0,0
05.08.2020 14:00:00 25,3 6,7 31,7 37,7 23,7 21,0 6 4 20 11 S 1019,0 75 60 0,0
05.08.2020 13:00:00 24,4 7,2 32,3 35,9 22,1 21,0 6 4 16 9 SSW 1019,5 47 60 0,0
05.08.2020 12:00:00 23,8 6,9 29,3 34,1 20,5 21,0 10 5 20 11 SW 1019,5 59 60 0,0
05.08.2020 11:00:00 22,3 9,2 27,0 29,3 19,2 21,1 5 3 15 8 NW 1019,5 72 60 0,0
05.08.2020 10:00:00 20,7 11,2 24,9 25,1 18,2 21,1 5 3 10 5 S 1019,7 60 60 0,0
05.08.2020 09:00:00 17,7 11,1 23,0 20,6 17,6 21,1 5 3 10 5 SW 1019,7 54 60 0,0
05.08.2020 08:00:00 15,4 10,5 18,1 16,4 17,5 21,1 5 3 8 5 SSW 1019,7 55 60 0,0
05.08.2020 07:00:00 12,5 10,8 13,4 12,7 17,7 21,1 2 1 5 3 SW 1019,5 48 35 0,0
05.08.2020 06:00:00 9,6 9,2 8,3 12,0 18,1 21,2 4 2 6 3 SSW 1019,2 36 0 0,0
05.08.2020 05:00:00 10,1 9,5 8,4 12,4 18,5 21,2 4 2 6 4 SSW 1018,8 34 0 0,0
05.08.2020 04:00:00 10,2 9,7 9,0 13,0 18,9 21,2 4 2 6 3 WSW 1018,3 37 0 0,0
05.08.2020 03:00:00 11,0 10,3 9,2 13,6 19,4 21,2 2 1 4 2 SSW 1018,0 38 0 0,0
05.08.2020 02:00:00 11,5 10,6 9,7 14,3 19,9 21,2 2 1 4 2 SSW 1017,6 36 0 0,0
05.08.2020 01:00:00 12,5 11,4 10,7 15,1 20,4 21,3 3 2 5 3 SSW 1017,5 44 0 0,0
05.08.2020 00:00:00 13,7 12,1 11,7 16,2 20,8 21,3 2 1 4 2 WSW 1017,3 48 0 0,0
04.08.2020 23:00:00 14,9 12,0 13,8 17,3 21,3 21,3 0 0 5 3 N 1017,2 45 0 0,0
04.08.2020 22:00:00 16,8 12,0 14,1 18,5 21,6 21,3 2 1 5 3 SSW 1016,6 55 0 0,0
04.08.2020 21:00:00 19,4 11,0 17,8 20,3 21,9 21,4 3 2 6 4 NW 1015,9 69 7 0,0
04.08.2020 20:00:00 21,1 9,7 20,3 21,3 22,0 21,4 3 2 9 5 N 1015,2 71 14 0,0
04.08.2020 19:00:00 21,1 8,7 20,9 22,4 22,1 21,4 4 2 16 9 NNW 1014,9 68 0 0,0
04.08.2020 18:00:00 21,7 9,0 22,8 23,5 22,0 21,4 9 5 18 10 NNW 1014,5 71 0 0,0
04.08.2020 17:00:00 21,2 8,9 21,7 22,8 21,9 21,5 10 5 20 11 NW 1014,2 75 0 0,0
04.08.2020 16:00:00 21,4 9,2 23,2 24,4 21,6 21,5 8 4 22 12 NNW 1013,7 68 0 0,0
04.08.2020 15:00:00 21,4 8,5 23,6 25,5 21,1 21,5 10 6 28 15 N 1013,4 75 4 0,0
04.08.2020 14:00:00 21,5 9,0 24,7 25,6 20,4 21,6 9 5 29 15 N 1013,4 52 13 0,0
04.08.2020 13:00:00 20,2 10,2 23,6 23,6 19,8 21,6 12 7 26 14 NNW 1013,0 75 2 0,0
04.08.2020 12:00:00 18,6 10,2 20,7 20,5 19,4 21,6 11 6 24 13 NNW 1013,0 75 0 0,0
04.08.2020 11:00:00 18,3 11,4 20,1 20,8 18,9 21,6 10 6 21 11 N 1012,5 68 3 0,0
04.08.2020 10:00:00 16,7 11,8 19,0 19,4 18,5 21,6 7 4 16 8 NNW 1012,4 70 6 0,0
04.08.2020 09:00:00 14,9 11,2 16,4 17,0 18,4 21,7 6 4 12 6 NW 1012,2 58 1 0,0
04.08.2020 08:00:00 13,1 10,2 13,7 15,2 18,5 21,7 4 2 8 4 W 1012,2 48 0 0,0
04.08.2020 07:00:00 12,1 10,2 11,8 14,1 18,7 21,7 4 2 5 3 SW 1011,8 56 0 0,0
04.08.2020 06:00:00 11,9 9,6 10,7 13,6 19,0 21,7 4 2 9 5 NW 1011,3 62 0 0,0
04.08.2020 05:00:00 12,6 9,8 11,4 14,2 19,4 21,7 5 3 10 6 NNW 1011,0 59 0 0,0
04.08.2020 04:00:00 12,8 10,4 11,4 14,6 19,7 21,8 5 3 8 4 NNW 1011,1 55 0 0,0
04.08.2020 03:00:00 13,5 10,7 11,5 14,9 20,1 21,8 5 3 9 5 NNW 1011,1 59 0 0,0
04.08.2020 02:00:00 13,8 11,5 12,0 15,3 20,5 21,8 6 3 10 6 N 1010,9 56 0 0,0
04.08.2020 01:00:00 13,9 12,8 12,5 16,0 20,9 21,8 4 2 7 4 NNW 1010,8 24 0 0,0
04.08.2020 00:00:00 15,5 13,2 13,9 16,9 21,2 21,8 4 2 13 7 NNW 1010,4 51 0 0,0
03.08.2020 23:00:00 17,3 13,5 16,3 17,4 21,6 21,8 7 4 15 8 NE 1010,5 50 0 0,0
03.08.2020 22:00:00 15,6 14,3 14,5 17,8 22,1 21,8 2 1 3 2 NNE 1009,9 30 0 0,0
03.08.2020 21:00:00 17,5 14,3 15,6 19,1 22,4 21,9 3 1 9 5 NE 1009,8 56 9 0,0
03.08.2020 20:00:00 19,8 14,3 19,1 20,3 22,6 21,9 5 3 15 8 NE 1009,7 59 35 0,0
03.08.2020 19:00:00 20,7 13,7 22,0 22,1 22,6 21,9 8 4 21 11 N 1009,6 45 12 0,0
03.08.2020 18:00:00 20,4 13,6 22,0 22,5 22,5 21,9 11 6 23 13 NNW 1010,0 69 3 0,0
03.08.2020 17:00:00 19,4 14,6 21,5 22,3 22,4 21,9 10 5 26 14 NNW 1010,2 35 0 0,0
03.08.2020 16:00:00 18,5 15,2 20,0 21,9 22,4 21,9 11 6 21 12 NW 1010,5 28 0 0,0
03.08.2020 15:00:00 18,0 15,3 20,2 21,9 22,3 21,9 12 6 23 13 WNW 1010,9 24 0 0,0
03.08.2020 14:00:00 18,0 16,0 20,2 21,9 22,3 21,9 10 5 20 11 WNW 1011,2 19 0 0,0
03.08.2020 13:00:00 17,9 16,3 19,6 21,3 22,2 21,9 8 4 14 7 WNW 1011,3 15 0 0,0
03.08.2020 12:00:00 17,6 16,2 18,8 21,0 22,2 21,9 7 4 15 8 NW 1011,4 11 0 0,0
03.08.2020 11:00:00 17,2 16,2 18,3 20,8 22,2 21,9 9 5 16 9 NNW 1011,4 8 0 0,0
03.08.2020 10:00:00 17,2 16,3 18,0 20,5 22,2 21,9 8 4 15 8 NW 1011,6 8 0 0,0
03.08.2020 09:00:00 17,5 16,5 18,4 20,3 22,2 21,9 6 3 16 8 NW 1011,6 9 0 0,0
03.08.2020 08:00:00 17,1 16,4 17,4 19,4 22,4 21,9 7 4 14 8 NNW 1011,4 9 0 0,0
03.08.2020 07:00:00 17,1 16,4 17,5 19,4 22,6 21,9 6 4 13 7 NW 1011,3 11 0 0,0
03.08.2020 06:00:00 17,4 16,9 17,5 19,3 22,9 21,9 4 2 12 7 NW 1011,3 7 0 1,2
03.08.2020 05:00:00 17,3 16,7 17,3 19,4 23,2 21,9 6 3 12 7 W 1011,4 8 0 0,4
03.08.2020 04:00:00 17,6 17,0 17,6 19,8 23,5 21,9 5 3 15 8 W 1011,4 9 0 0,3
03.08.2020 03:00:00 18,3 17,6 18,3 20,3 23,8 21,9 6 3 12 6 NNW 1011,7 9 0 0,4
03.08.2020 02:00:00 18,3 17,8 18,3 20,5 24,1 21,9 4 2 7 4 WSW 1012,0 7 0 0,0
03.08.2020 01:00:00 18,1 17,5 18,0 20,4 24,4 21,9 4 2 8 4 WSW 1011,8 12 0 0,0
03.08.2020 00:00:00 18,2 17,5 18,2 20,6 24,8 21,9 5 3 11 6 SW 1012,2 20 0 0,1
02.08.2020 23:00:00 18,1 17,5 18,1 20,7 25,3 21,9 5 3 12 6 SSW 1012,6 12 0 0,3
02.08.2020 22:00:00 18,2 17,5 18,1 21,0 25,9 21,9 6 4 11 6 S 1012,5 16 0 0,0
02.08.2020 21:00:00 18,5 17,7 18,4 21,5 26,4 21,9 3 2 14 8 SSW 1012,2 22 0 3,1
02.08.2020 20:00:00 18,8 17,5 18,3 22,0 26,9 21,9 8 4 18 10 WSW 1012,4 24 0 0,4
02.08.2020 19:00:00 20,4 16,4 20,6 23,9 27,4 21,9 3 1 15 8 SW 1011,7 71 0 0,0
02.08.2020 18:00:00 20,4 17,0 20,9 24,7 27,8 21,8 10 6 18 10 WNW 1012,0 56 0 0,0
02.08.2020 17:00:00 20,8 16,4 20,0 26,2 28,1 21,8 7 4 21 12 N 1011,5 42 0 0,3
02.08.2020 16:00:00 24,3 12,8 25,2 31,0 28,0 21,8 12 7 31 17 N 1011,5 64 0 0,0
02.08.2020 15:00:00 26,8 11,5 29,7 38,2 27,4 21,8 16 9 39 21 N 1011,7 75 38 0,0
02.08.2020 14:00:00 27,7 12,4 34,0 38,6 26,7 21,8 19 10 37 20 NW 1011,9 63 35 0,0
02.08.2020 13:00:00 28,1 12,2 34,6 37,4 26,1 21,8 10 5 20 11 NNW 1011,7 51 34 0,0
02.08.2020 12:00:00 27,0 12,1 31,3 33,0 25,5 21,8 9 5 16 8 NNW 1011,7 60 2 0,0
02.08.2020 11:00:00 26,5 11,3 29,7 33,3 24,9 21,8 2 1 15 8 NW 1011,4 73 41 0,0
02.08.2020 10:00:00 24,9 12,5 29,7 30,5 24,5 21,8 6 3 13 7 E 1011,2 67 60 0,0
02.08.2020 09:00:00 21,9 12,4 25,4 24,9 24,5 21,7 4 2 13 7 SSE 1011,7 45 33 0,0
02.08.2020 08:00:00 18,7 12,5 18,9 20,6 24,8 21,7 6 4 12 7 ENE 1011,9 62 0 0,0
02.08.2020 07:00:00 18,3 12,8 18,4 20,4 25,1 21,7 6 4 11 6 E 1012,0 67 0 0,0
02.08.2020 06:00:00 18,1 12,3 17,1 20,6 25,5 21,7 5 3 14 8 E 1012,0 72 0 0,2
02.08.2020 05:00:00 20,0 10,1 19,9 22,1 25,8 21,7 8 5 13 7 ESE 1012,3 63 0 0,0
02.08.2020 04:00:00 20,4 10,1 19,9 22,4 26,1 21,7 5 3 9 5 E 1012,7 70 0 0,0
02.08.2020 03:00:00 20,3 10,2 19,6 22,5 26,5 21,6 4 2 9 5 E 1012,9 68 0 0,0
02.08.2020 02:00:00 21,1 9,4 19,6 23,0 26,9 21,6 5 3 15 8 E 1013,3 59 0 0,0
02.08.2020 01:00:00 21,7 9,1 21,0 23,2 27,3 21,6 8 4 19 11 ESE 1013,6 67 0 0,0
02.08.2020 00:00:00 22,0 8,6 21,1 23,2 27,9 21,6 9 5 14 8 E 1013,7 57 0 0,0
01.08.2020 23:00:00 22,2 8,7 20,3 23,9 28,5 21,6 7 4 16 9 E 1013,8 61 0 0,0
01.08.2020 22:00:00 23,7 8,7 22,2 25,2 29,0 21,6 8 4 16 9 E 1013,7 56 0 0,0
01.08.2020 21:00:00 25,2 9,7 23,0 27,5 29,5 21,6 7 4 15 8 NE 1013,6 55 13 0,0
01.08.2020 20:00:00 27,8 8,2 26,9 31,4 29,8 21,6 9 5 19 11 ENE 1013,3 59 59 0,0
01.08.2020 19:00:00 28,8 8,2 30,0 36,1 29,8 21,6 9 5 22 12 E 1013,4 68 60 0,0
01.08.2020 18:00:00 29,7 8,2 32,7 39,7 29,5 21,6 9 5 23 13 ENE 1013,6 75 60 0,0
01.08.2020 17:00:00 30,4 7,6 35,9 42,7 29,0 21,6 11 6 21 11 NNE 1013,9 68 60 0,0
01.08.2020 16:00:00 29,2 8,0 35,7 44,9 28,3 21,6 10 5 24 13 ENE 1014,4 58 60 0,0
01.08.2020 15:00:00 29,2 8,7 35,0 45,3 27,4 21,6 6 3 27 15 NE 1014,8 47 60 0,0
01.08.2020 14:00:00 27,3 9,0 33,4 44,6 26,3 21,6 10 5 22 12 ENE 1015,5 60 60 0,0
01.08.2020 13:00:00 27,0 8,9 34,7 42,6 25,3 21,6 10 5 24 13 NE 1016,1 60 60 0,0
01.08.2020 12:00:00 25,8 9,2 30,6 39,0 24,3 21,6 12 7 25 13 ENE 1016,1 47 60 0,0
01.08.2020 11:00:00 24,9 10,2 29,9 34,6 23,4 21,6 9 5 22 12 ENE 1016,5 61 60 0,0
01.08.2020 10:00:00 22,4 11,2 27,2 30,8 22,8 21,6 8 5 18 10 ENE 1016,8 41 60 0,0
01.08.2020 09:00:00 20,0 11,3 24,0 25,8 22,5 21,6 6 3 12 6 ENE 1017,3 40 60 0,0
01.08.2020 08:00:00 17,2 10,9 20,1 20,8 22,6 21,6 8 4 16 9 E 1017,3 47 60 0,0
01.08.2020 07:00:00 15,0 10,1 16,3 16,9 22,9 21,5 6 3 13 7 E 1017,4 48 45 0,0
01.08.2020 06:00:00 13,3 9,7 11,7 15,9 23,3 21,5 7 4 12 7 E 1017,3 44 0 0,0
01.08.2020 05:00:00 13,6 9,6 10,5 16,1 23,8 21,5 7 4 11 6 ENE 1017,5 53 0 0,0
01.08.2020 04:00:00 11,9 9,2 9,2 16,4 24,4 21,5 6 4 11 6 ENE 1017,8 56 0 0,0
01.08.2020 03:00:00 11,9 9,2 9,4 17,1 25,0 21,5 5 3 6 4 ENE 1017,8 53 0 0,0

tt = temperature
td = dewpoint
tt 5cm = temperature 5cm
tt -5cm = temperature -5cm
tt -20cm = temperature -20cm
tt -100cm = temperature -100cm
ff = wind speed
fx = gusts
dd = wind direction
ppp = reduced air pressure
vv = visibility
sd = sunshine duration
rr = precipitation

Next stations